Weather History for Punta Gorda, FL

Change the Weather History Date:

Saturday, December 22, 2012

  Actual Average Record
Temperature  
Mean Temperature 52 °F -  
Max Temperature 66 °F 71 °F 86 °F (2006)
Min Temperature 39 °F 50 °F 39 °F (2012)
Degree Days  
Heating Degree Days 12    
Growing Degree Days 2 (Base 50)    
Moisture  
Dew Point 32 °F    
Average Humidity 52    
Maximum Humidity 83    
Minimum Humidity 17    
Precipitation  
Precipitation 0.00 in - - ()
Sea Level Pressure  
Sea Level Pressure 30.27 in    
Wind  
Wind Speed 8 mph (North)    
Max Wind Speed 14 mph    
Max Gust Speed 18 mph    
Visibility 10 miles    
Events      
Averages and records for this station are not official NWS values.
T = Trace of Precipitation, MM = Missing Value Source: NWS Daily Summary

Daily Weather History Graph

Daily Weather History Graph

Search for Another Location

Airport:

Trip Planner

Search our weather history database for the weather conditions in past years. The results will help you decide how hot, cold, wet, or windy it might be!

Date:

Astronomy

Dec. 22, 2012 Rise Set
Actual Time 7:13 AM EST 5:40 PM EST
Civil Twilight 6:47 AM EST 6:05 PM EST
Nautical Twilight 6:18 AM EST 6:34 PM EST
Astronomical Twilight 5:50 AM EST 7:03 PM EST
Moon 1:42 PM EST (12/22) 2:14 AM EST (12/22)
Length of Visible Light 11h 17m
Length of Day
10h 26m
Waxing Gibbous, 73% of the Moon is Illuminated
Dec 22
Waxing Gibbous
Dec 28
Full
Jan 4
Last Quarter
Jan 11
New
Jan 18
First Quarter

Hourly Weather History & Observations

Time (EST) Temp. Windchill Dew Point Humidity Pressure Visibility Wind Dir Wind Speed Gust Speed Precip Events Conditions
12:53 AM 48.0 °F - 39.9 °F 74% 30.25 in 10.0 mi NNW 6.9 mph - N/A   Clear
1:53 AM 46.9 °F - 39.9 °F 77% 30.25 in 10.0 mi NNW 6.9 mph - N/A   Clear
2:53 AM 48.9 °F - 39.9 °F 71% 30.25 in 10.0 mi NNW 8.1 mph - N/A   Clear
3:53 AM 46.9 °F - 39.0 °F 74% 30.24 in 10.0 mi North 5.8 mph - N/A   Clear
4:53 AM 45.0 °F 41.2 °F 37.0 °F 74% 30.24 in 10.0 mi North 6.9 mph - N/A   Clear
5:53 AM 41.0 °F 36.4 °F 36.0 °F 82% 30.26 in 10.0 mi NNE 6.9 mph - N/A   Clear
6:53 AM 39.9 °F 35.1 °F 35.1 °F 83% 30.29 in 10.0 mi NNE 6.9 mph - N/A   Clear
7:53 AM 44.1 °F 38.1 °F 33.1 °F 65% 30.32 in 10.0 mi North 11.5 mph - N/A   Clear
8:53 AM 48.0 °F - 28.9 °F 48% 30.32 in 10.0 mi North 11.5 mph - N/A   Clear
9:53 AM 52.0 °F - 32.0 °F 47% 30.34 in 10.0 mi North 13.8 mph - N/A   Clear
10:53 AM 55.9 °F - 32.0 °F 40% 30.32 in 10.0 mi North 11.5 mph - N/A   Clear
11:53 AM 60.1 °F - 26.1 °F 27% 30.30 in 10.0 mi North 12.7 mph 18.4 mph N/A   Clear
12:53 PM 63.0 °F - 26.1 °F 25% 30.27 in 10.0 mi NNW 9.2 mph 18.4 mph N/A   Clear
1:53 PM 64.9 °F - 23.0 °F 20% 30.25 in 10.0 mi North 11.5 mph 18.4 mph N/A   Clear
2:53 PM 66.0 °F - 21.0 °F 18% 30.24 in 10.0 mi NNW 8.1 mph - N/A   Clear
3:53 PM 66.0 °F - 19.9 °F 17% 30.23 in 10.0 mi North 9.2 mph - N/A   Clear
4:53 PM 64.0 °F - 25.0 °F 23% 30.24 in 10.0 mi NNW 6.9 mph - N/A   Clear
5:53 PM 59.0 °F - 28.9 °F 32% 30.25 in 10.0 mi NNW 3.5 mph - N/A   Clear
7:53 PM 50.0 °F - 34.0 °F 54% 30.27 in 10.0 mi NNW 6.9 mph - N/A   Clear
8:53 PM 46.9 °F - 30.9 °F 54% 30.27 in 10.0 mi North 3.5 mph - N/A   Clear
9:53 PM 46.0 °F 43.1 °F 32.0 °F 58% 30.29 in 10.0 mi North 5.8 mph - N/A   Clear
10:53 PM 42.1 °F 38.4 °F 33.1 °F 70% 30.28 in 10.0 mi North 5.8 mph - N/A   Clear
11:53 PM 43.0 °F 41.3 °F 33.1 °F 68% 30.28 in 10.0 mi NNE 3.5 mph - N/A   Clear